Overview Statistics Trail Chart Weather Telemetry Raw packets
 

This is the latest recevied weather packets stored in our database for station/object DL2AKT-20. If no packets are shown the sender has not sent any weather packets the latest 10 day(s).

<< 31 32 33 34 35 36 37 >>
Time Temp. Humidity Pressure Rain* Wind** Luminosity Snow
1777464024 16.11° C 27% 1029.6 hPa - - - -
1777463124 15.56° C 28% 1029.4 hPa - - - -
1777462224 15° C 28% 1029.4 hPa - - - -
1777461324 15° C 28% 1029.4 hPa - - - -
1777460424 15.56° C 29% 1029.5 hPa - - - -
1777459524 16.11° C 28% 1029.4 hPa - - - -
1777458623 16.11° C 27% 1029.4 hPa - - - -
1777457723 16.11° C 29% 1029.4 hPa - - - -
1777456823 15° C 30% 1029.5 hPa - - - -
1777455923 13.89° C 31% 1029.5 hPa - - - -
1777455023 15.56° C 29% 1029.4 hPa - - - -
1777451423 13.89° C 30% 1029.3 hPa - - - -
1777450522 14.44° C 29% 1029.1 hPa - - - -
1777449622 13.89° C 30% 1029 hPa - - - -
1777448725 13.89° C 31% 1029 hPa - - - -
1777447821 13.33° C 32% 1028.8 hPa - - - -
1777446921 12.78° C 32% 1028.8 hPa - - - -
1777446021 12.22° C 33% 1028.8 hPa - - - -
1777445370 11.67° C 34% 1028.6 hPa - - - -
1777444469 11.11° C 35% 1028.5 hPa - - - -
1777443569 11.67° C 35% 1028.5 hPa - - - -
1777442668 11.67° C 35% 1028.3 hPa - - - -
1777441767 10.56° C 33% 1028.2 hPa - - - -
1777440867 10° C 35% 1028.2 hPa - - - -
1777439967 10° C 35% 1028 hPa - - - -

* Rain since midnight (hover to see other rain measurements)
** Current wind speed in m/s (hover to see current wind gust speed)